Wind_Speed
15 16 16 16 16 17 18 18 20 20 19 19 21 24 27 26 26 22 22 18 15 18 18 9 13 18 17 21 26 22 15 17 21 20 18 14 11 17 4 12 7 11 12 17 18
13 15 17 18 19 19 18 18 18 19 20 19 20 21 21 25 26 28 28 26 24 21 20 18 22 20 23 23 28 24 17 24 20 19 19 19 11 16 9 13 17 20 23 20 13
15 15 16 17 19 20 20 20 19 18 19 20 18 17 18 16 20 22 24 28 31 29 28 23 23 23 27 28 30 29 24 24 26 25 26 30 26 24 21 21 21 21 24 22 23
16 17 17 17 17 19 20 21 21 20 18 18 20 18 14 8 10 2 8 18 22 24 29 29 31 32 28 27 33 29 36 33 34 35 34 32 34 29 28 28 28 26 28 24 25
16 16 17 18 18 19 20 20 20 20 21 20 18 18 17 13 22 20 17 8 9 12 24 32 36 38 32 31 32 34 31 37 40 40 38 37 34 34 34 35 35 30 29 25 27
17 18 19 19 19 19 19 19 19 19 20 21 21 19 13 25 13 16 19 18 13 12 16 28 38 39 40 36 33 38 39 41 42 40 38 33 35 35 36 37 36 31 30 30 29
17 18 20 21 21 20 20 19 19 19 19 20 20 18 21 29 18 17 16 19 21 21 20 20 28 36 36 33 40 42 35 33 34 36 34 36 35 34 39 37 37 35 33 31 28
15 17 19 20 21 22 23 23 22 20 19 18 19 12 17 17 22 24 23 25 24 25 24 18 17 31 36 30 32 33 31 29 32 32 34 28 35 28 35 37 37 30 30 27 25
19 20 22 22 22 21 21 21 18 18 15 13 10 13 24 9 16 14 23 24 22 24 24 25 19 25 24 24 22 27 28 36 31 29 28 29 40 29 36 36 36 37 36 25 28
21 22 24 25 26 26 26 19 18 13 7 4 10 9 22 16 6 7 4 9 18 21 25 24 23 18 19 21 27 32 34 30 33 28 29 34 36 31 34 32 35 42 26 31 33
23 24 24 26 27 26 27 19 7 8 12 15 16 17 26 10 12 15 12 10 13 19 23 30 16 27 42 37 33 31 26 32 32 28 31 31 32 28 23 32 34 36 38 26 34
23 24 25 26 27 24 11 13 10 8 15 27 32 36 35 31 31 26 19 19 17 19 21 24 30 44 28 33 32 34 32 34 29 28 23 28 30 28 26 26 34 38 39 33 31
25 25 26 27 23 9 14 13 8 12 11 30 31 30 25 22 31 29 26 28 23 22 25 29 42 26 32 32 33 33 33 30 31 25 23 25 29 30 28 29 34 38 42 41 39
27 25 26 27 14 13 10 10 9 12 8 19 12 7 9 10 14 19 24 30 26 29 22 27 32 32 34 35 34 32 30 29 27 22 20 21 23 28 21 24 26 32 37 37 30
28 27 25 13 14 9 10 10 9 6 6 5 9 7 6 11 4 4 14 19 24 25 22 34 26 34 36 41 32 38 25 26 26 21 23 28 19 20 22 24 22 21 27 30 29
31 23 12 10 7 11 11 9 6 6 4 4 7 13 15 16 7 9 8 16 14 20 28 31 33 28 38 34 28 31 28 26 21 18 20 26 21 24 24 25 24 22 29 25 24
27 11 12 8 9 12 7 8 5 6 7 9 12 13 14 22 13 12 10 13 14 16 20 31 31 29 29 28 36 28 26 17 19 17 23 18 20 23 23 22 19 18 23 23 22
19 9 12 12 13 7 6 3 8 10 11 17 18 20 19 20 16 7 11 16 17 15 18 22 25 34 27 29 33 34 28 17 33 15 19 24 24 17 14 9 10 18 14 12 12
11 6 4 11 8 4 5 6 6 12 14 15 20 16 17 19 17 14 17 16 5 6 7 14 27 29 34 26 25 39 27 34 24 24 17 15 18 20 18 16 12 11 18 17 15
9 6 4 8 5 5 3 7 10 14 14 16 19 10 15 19 6 16 6 1 2 5 3 13 10 27 30 32 32 31 29 23 20 27 22 14 11 9 7 6 16 14 20 20 18
9 4 4 8 7 6 4 8 15 16 16 10 19 20 17 15 18 14 13 6 4 6 8 16 5 15 29 32 32 24 25 29 22 18 16 13 12 6 6 8 10 15 23 25 23
7 4 5 7 5 5 5 16 20 15 17 15 10 15 15 16 14 15 18 8 6 9 14 15 8 16 15 26 30 31 30 31 18 27 18 11 6 4 7 11 12 18 24 23 24
10 5 1 4 5 7 15 18 9 13 15 10 10 15 17 18 7 8 2 7 3 8 4 7 11 16 4 17 31 30 33 27 27 18 20 14 6 7 4 4 11 9 20 23 25
7 5 5 4 7 9 13 14 16 15 12 13 17 11 6 15 11 7 10 2 4 16 10 8 11 20 9 8 19 29 32 29 29 15 18 19 6 10 13 11 11 13 17 23 25
6 3 5 5 9 10 14 14 15 14 14 23 13 14 16 16 17 5 7 14 3 6 4 3 13 23 16 16 26 28 27 27 29 24 16 21 14 13 15 12 12 15 18 21 24
5 7 12 20 10 10 11 11 15 18 16 14 15 19 18 17 16 16 14 12 2 4 5 6 10 16 19 15 24 18 30 26 23 26 18 14 15 7 14 13 10 12 18 20 23
6 6 6 12 11 6 9 12 18 18 12 15 18 19 18 18 22 25 27 24 15 15 11 5 7 10 15 16 24 16 21 22 24 25 20 12 4 4 7 3 3 3 16 22 23
Wind_Direction
336 337 336 333 329 326 322 319 315 308 305 297 285 276 277 278 275 275 265 249 235 243 247 230 215 214 217 230 228 237 258 252 252 253 263 253 226 257 274 296 282 266 277 279 288
331 329 328 328 328 326 325 325 323 321 318 309 301 294 284 281 282 277 260 248 248 240 236 224 221 214 222 229 232 231 239 244 255 274 280 288 259 261 210 238 265 268 275 271 262
328 326 324 325 325 325 323 321 319 318 321 323 319 317 306 300 300 273 258 243 244 241 237 231 233 225 228 233 230 232 238 257 267 266 275 278 271 278 281 279 270 282 288 296 290
330 326 323 318 315 314 315 317 317 317 317 315 317 321 323 299 257 354 263 229 232 234 228 228 232 236 231 236 237 245 241 250 263 271 279 273 274 275 265 274 279 283 281 288 281
335 331 326 321 317 312 308 309 310 312 315 312 313 312 317 253 242 287 285 260 229 249 230 222 224 229 233 233 241 243 246 252 260 269 264 271 270 276 271 274 278 283 280 280 273
341 336 333 331 327 322 316 311 306 303 299 301 305 302 281 265 263 254 251 257 248 243 237 228 230 232 242 241 243 249 257 261 261 261 264 265 265 263 260 266 270 272 273 272 270
340 337 335 332 329 326 323 317 309 298 291 290 287 285 271 255 264 264 261 251 247 246 246 239 237 240 241 248 248 256 260 262 258 256 254 258 265 261 265 266 269 272 272 265 266
340 336 334 329 324 324 325 322 313 302 292 280 274 256 259 266 272 267 260 255 251 242 240 240 246 243 243 255 251 251 253 257 250 253 252 248 263 264 269 266 260 260 266 270 265
341 337 335 332 330 328 322 322 318 303 292 278 258 224 266 273 246 268 248 247 245 243 238 240 244 246 233 240 252 237 242 240 251 248 250 244 257 258 266 268 268 267 268 270 268
343 338 335 333 332 330 325 327 321 299 321 263 242 241 250 253 257 268 239 241 243 236 228 222 228 236 233 219 228 229 237 243 255 251 245 246 255 261 257 268 271 274 254 255 273
344 339 337 335 334 331 328 337 288 253 227 255 286 230 286 241 274 264 258 252 247 229 224 206 212 220 221 219 234 242 248 247 250 248 240 256 268 273 254 262 268 265 263 263 269
338 335 332 333 334 332 1 327 326 306 294 275 269 263 258 265 271 255 252 244 231 231 221 217 218 222 224 231 231 243 250 250 262 262 256 258 260 261 263 266 270 273 274 265 266
336 332 328 327 332 356 320 313 293 311 277 280 266 259 251 244 248 246 238 233 241 229 229 220 228 228 230 232 235 233 235 243 252 263 265 267 269 263 265 269 269 267 271 274 269
338 329 325 325 328 314 320 319 320 314 283 268 198 207 181 225 253 235 237 228 237 236 239 235 237 236 226 233 229 236 229 242 254 260 258 248 265 255 260 260 257 265 265 264 262
340 330 325 328 310 324 315 317 308 287 280 102 121 140 193 228 339 136 224 232 235 237 230 241 228 230 239 227 230 242 236 238 240 247 262 256 259 270 271 267 270 269 261 259 260
341 340 360 8 323 316 317 295 290 240 262 11 59 344 258 230 241 185 232 212 253 241 253 248 245 240 230 242 230 237 239 242 241 240 245 247 253 264 266 270 268 258 256 260 248
345 359 17 359 319 314 314 287 257 260 344 38 352 318 326 292 249 245 259 276 241 216 237 244 247 247 241 223 235 222 224 226 229 227 242 242 243 263 275 278 275 259 252 260 222
348 12 340 341 326 315 303 291 257 357 12 347 337 316 280 282 274 303 262 257 253 257 281 234 227 234 231 229 216 222 213 215 215 218 236 226 243 257 262 272 259 240 218 164 157
11 353 346 333 353 324 313 264 343 2 342 329 316 307 285 251 268 227 260 260 351 359 293 278 235 228 229 227 237 210 215 217 240 231 245 255 219 233 251 260 243 228 213 148 169
352 311 326 348 346 315 279 310 327 352 340 317 307 297 320 312 247 253 278 294 258 262 324 287 286 227 229 216 237 237 210 208 222 240 247 232 231 223 191 254 197 209 186 168 165
348 300 336 346 326 291 311 317 326 333 318 328 313 306 305 299 295 288 280 154 196 289 231 275 268 271 223 212 213 214 217 210 220 230 234 244 241 196 270 261 183 185 173 164 168
307 317 347 347 321 310 298 322 298 304 311 323 314 308 303 314 301 276 261 8 190 295 293 253 281 267 279 220 215 214 215 200 222 217 234 272 212 77 196 229 168 162 164 158 169
320 304 342 350 340 329 315 313 320 326 320 320 293 300 316 309 291 283 35 4 331 294 304 358 243 250 279 253 199 224 205 209 216 229 208 235 140 141 172 158 167 112 139 159 165
324 325 332 310 335 313 326 311 327 321 311 309 303 313 255 302 311 293 339 155 269 259 291 310 267 258 248 232 206 214 206 204 203 213 196 224 148 165 170 144 114 135 149 159 163
343 289 326 306 322 321 298 283 297 323 330 313 305 307 317 323 312 347 321 313 321 271 262 241 262 241 254 301 305 208 215 203 196 210 216 194 211 167 140 115 116 139 155 159 165
354 339 323 298 290 305 307 300 324 328 326 310 315 314 320 305 316 318 322 311 232 265 248 248 270 276 226 262 284 260 208 211 204 201 226 178 205 181 124 132 142 149 170 172 173
323 306 290 284 271 284 302 319 305 313 312 310 311 311 305 310 311 301 290 284 267 263 280 269 286 253 221 234 271 234 202 211 197 194 215 212 168 222 246 211 184 170 187 184 181
Height
1522 1520 1518 1516 1515 1512 1512 1509 1507 1504 1503 1502 1501 1502 1501 1501 1501 1502 1498 1503 1505 1506 1508 1511 1510 1511 1512 1511 1510 1506 1501 1492 1482 1477 1469 1466 1470 1469 1475 1477 1477 1479 1480 1482 1483
1522 1520 1517 1515 1512 1511 1509 1507 1505 1502 1500 1499 1496 1497 1498 1496 1494 1490 1494 1494 1498 1502 1503 1506 1507 1507 1506 1503 1503 1500 1493 1484 1474 1470 1467 1464 1465 1470 1473 1477 1479 1478 1477 1478 1478
1521 1519 1516 1514 1511 1509 1506 1504 1502 1501 1498 1495 1495 1494 1492 1493 1493 1485 1482 1487 1490 1494 1498 1503 1503 1502 1498 1496 1493 1490 1483 1478 1471 1470 1470 1468 1465 1468 1468 1469 1471 1471 1474 1475 1477
1520 1517 1515 1513 1510 1507 1504 1502 1500 1498 1496 1496 1493 1491 1490 1493 1489 1476 1479 1482 1484 1487 1489 1493 1498 1494 1488 1484 1486 1481 1476 1476 1472 1471 1470 1465 1464 1462 1467 1469 1471 1471 1473 1473 1474
1519 1516 1514 1511 1508 1506 1503 1500 1498 1496 1492 1492 1490 1488 1489 1489 1480 1479 1480 1482 1482 1485 1483 1486 1487 1485 1474 1477 1478 1468 1468 1469 1469 1470 1468 1467 1462 1461 1461 1466 1467 1467 1468 1468 1469
1517 1514 1512 1509 1506 1503 1500 1498 1495 1493 1492 1488 1485 1485 1489 1482 1477 1478 1478 1478 1479 1481 1479 1481 1476 1477 1469 1468 1466 1464 1462 1460 1463 1462 1462 1462 1456 1458 1459 1462 1460 1461 1461 1463 1461
1517 1514 1511 1507 1504 1500 1497 1495 1492 1489 1487 1484 1483 1482 1481 1470 1472 1473 1473 1474 1476 1476 1475 1475 1475 1472 1467 1461 1463 1462 1458 1454 1451 1454 1452 1458 1447 1449 1454 1454 1452 1453 1453 1454 1455
1517 1513 1510 1506 1502 1498 1494 1490 1486 1483 1481 1480 1479 1480 1471 1468 1467 1466 1466 1466 1469 1469 1471 1472 1471 1468 1465 1463 1458 1457 1455 1453 1445 1449 1448 1455 1436 1443 1447 1446 1444 1442 1444 1444 1448
1515 1511 1508 1503 1499 1496 1492 1487 1483 1479 1477 1476 1477 1478 1466 1459 1460 1458 1459 1461 1463 1463 1465 1469 1471 1466 1464 1459 1457 1448 1446 1440 1443 1442 1440 1441 1428 1436 1441 1440 1437 1438 1437 1439 1442
1514 1510 1505 1501 1497 1493 1488 1483 1479 1476 1475 1476 1475 1479 1460 1458 1455 1457 1457 1457 1458 1459 1460 1462 1465 1461 1455 1447 1438 1438 1437 1440 1436 1431 1431 1430 1422 1424 1428 1432 1433 1430 1428 1433 1436
1513 1508 1504 1500 1495 1491 1485 1482 1480 1475 1473 1468 1463 1461 1452 1453 1454 1454 1455 1454 1455 1453 1446 1452 1457 1441 1418 1424 1424 1428 1428 1425 1419 1419 1426 1423 1418 1413 1420 1426 1423 1421 1419 1421 1428
1511 1507 1502 1498 1493 1488 1486 1486 1484 1484 1472 1463 1456 1451 1450 1450 1449 1449 1453 1452 1448 1443 1446 1443 1431 1399 1430 1426 1429 1429 1429 1420 1418 1413 1415 1414 1410 1408 1411 1414 1417 1415 1412 1413 1419
1509 1505 1500 1495 1491 1487 1487 1485 1483 1481 1473 1453 1441 1439 1439 1442 1438 1439 1443 1444 1441 1434 1431 1427 1397 1430 1421 1422 1423 1416 1420 1422 1420 1416 1410 1412 1410 1405 1406 1408 1410 1410 1409 1410 1410
1507 1502 1497 1492 1491 1489 1485 1484 1483 1481 1463 1426 1430 1432 1436 1436 1432 1431 1431 1437 1432 1428 1423 1417 1413 1411 1414 1412 1411 1412 1409 1417 1419 1423 1425 1413 1413 1397 1398 1397 1397 1399 1399 1398 1400
1504 1498 1494 1490 1489 1488 1488 1484 1483 1482 1452 1421 1427 1432 1430 1431 1424 1425 1426 1430 1425 1421 1425 1401 1406 1405 1404 1389 1407 1391 1409 1408 1413 1419 1422 1414 1416 1394 1392 1390 1389 1388 1389 1390 1393
1501 1495 1492 1492 1490 1489 1486 1483 1483 1477 1442 1422 1428 1440 1425 1423 1419 1420 1423 1424 1423 1420 1412 1399 1401 1394 1394 1397 1395 1402 1405 1405 1405 1412 1421 1407 1410 1386 1386 1382 1376 1377 1379 1381 1384
1499 1495 1493 1492 1491 1488 1485 1483 1479 1456 1434 1434 1437 1437 1435 1423 1417 1417 1417 1422 1414 1415 1412 1402 1398 1389 1388 1392 1392 1391 1401 1415 1422 1414 1398 1394 1399 1376 1370 1368 1368 1368 1373 1373 1375
1497 1496 1495 1494 1489 1487 1486 1486 1466 1443 1442 1440 1437 1434 1429 1421 1416 1421 1417 1415 1408 1408 1413 1391 1399 1386 1378 1377 1378 1381 1385 1392 1408 1402 1396 1381 1389 1371 1358 1359 1360 1365 1369 1372 1380
1496 1495 1495 1492 1488 1488 1488 1473 1462 1451 1450 1449 1444 1438 1425 1413 1413 1411 1410 1405 1410 1420 1428 1389 1378 1375 1375 1373 1373 1371 1375 1364 1382 1364 1373 1357 1352 1355 1355 1356 1359 1361 1368 1373 1382
1496 1495 1493 1491 1488 1488 1484 1471 1461 1456 1456 1452 1446 1444 1434 1419 1425 1415 1408 1420 1419 1424 1429 1409 1398 1363 1360 1371 1368 1361 1358 1384 1377 1393 1383 1366 1356 1361 1351 1348 1349 1357 1361 1370 1381
1496 1492 1492 1490 1488 1486 1480 1468 1458 1459 1456 1458 1449 1441 1433 1426 1418 1411 1410 1409 1419 1421 1419 1415 1415 1379 1359 1350 1358 1359 1355 1361 1367 1361 1373 1378 1360 1334 1344 1347 1346 1349 1357 1368 1379
1496 1489 1490 1489 1489 1481 1477 1467 1461 1453 1452 1450 1450 1443 1435 1431 1428 1414 1407 1408 1419 1419 1410 1399 1399 1388 1359 1343 1346 1345 1347 1355 1356 1369 1355 1355 1359 1339 1344 1342 1344 1347 1356 1368 1377
1496 1489 1488 1489 1487 1482 1476 1463 1455 1451 1450 1448 1448 1441 1437 1433 1431 1413 1412 1428 1427 1425 1417 1410 1390 1380 1373 1356 1339 1339 1339 1342 1356 1351 1360 1362 1355 1341 1345 1341 1344 1350 1356 1369 1376
1498 1494 1487 1486 1486 1484 1477 1467 1459 1454 1449 1446 1440 1436 1445 1430 1420 1420 1421 1424 1427 1426 1422 1423 1397 1370 1379 1356 1337 1339 1334 1334 1345 1355 1351 1354 1345 1346 1348 1347 1350 1358 1364 1370 1377
1501 1496 1495 1487 1485 1485 1480 1470 1460 1455 1452 1447 1437 1433 1431 1428 1418 1422 1423 1417 1421 1421 1424 1422 1395 1373 1369 1380 1357 1333 1330 1330 1336 1345 1344 1346 1347 1342 1342 1346 1354 1362 1367 1373 1378
1505 1501 1496 1488 1484 1481 1473 1469 1459 1457 1455 1448 1444 1435 1431 1427 1422 1420 1419 1418 1424 1424 1418 1417 1391 1374 1375 1391 1369 1345 1328 1329 1332 1342 1339 1335 1345 1337 1343 1349 1357 1362 1367 1373 1377
1505 1503 1500 1490 1480 1476 1471 1469 1465 1461 1452 1448 1444 1440 1432 1428 1427 1422 1418 1413 1411 1412 1408 1411 1394 1371 1383 1388 1379 1347 1329 1325 1330 1337 1341 1350 1352 1345 1350 1353 1358 1359 1364 1370 1375